Погода в Яе-Борике

Россия / Кемеровская область (Кузбасс)     56°16′30″N   86°27′21″E
темп.,
°C
ветер,
м/с
пор.,
м/с
влажн.,
%
обл.,
%
осадки,
мм/ч
давл.,
гПа
погр.,
м
27 февраля, сб
сб2701:00−25зюз51192100 0.1 1033726
04:00−25юз51194100 0.1 1034695
07:00−25юз51193100 0.2 1034678
10:00−24юз61092100 0.1 1035730
13:00−23зюз6989100 0.1 1036804
16:00−22зюз6987100 0.1 1036762
19:00−23юз4894100 0.1 1036235
22:00−26юз379595 0.0 1038138
28 февраля, вс
вс2801:00−26юз389793 0.0 1038147
04:00−27юз379692 0.0 1038159
07:00−29ююз359788 0.0 103978
10:00−27ююз499488 0.0 1039263
13:00−21ююз468993 0.0 1037421
16:00−17ююз358391 0.0 1034595
19:00−21юв229390 0.0 103320
22:00−20вюв349698 0.0 103061
1 марта, пн
пн101:00−18вюв359799 0.1 1026111
04:00−16в4696100 0.4 1023157
07:00−14в4796100 1.1 1019214
10:00−13в4795100 0.8 1017219
13:00−10всв5795100 1.5 1014263
16:00−10всв6995100 0.6 1012329
19:00−11всв71394100 2.4 1011393
22:00−12всв71394100 3.0 1011469
2 марта, вт
вт201:00−14св61094100 4.0 1011413
04:00−16св499499 0.2 1013361
07:00−18св4895100 0.2 1016293
10:00−18всв4695100 0.1 1017318
13:00−16всв4694100 0.4 1017370
16:00−14всв4694100 0.4 1017409
19:00−15всв4796100 0.8 1018334
22:00−17всв4895100 0.3 1018318
3 марта, ср
ср301:00−17всв4796100 0.5 1017269
04:00−19всв4896100 0.1 1016285
07:00−20всв4896100 0.2 1017288
10:00−20всв5896100 0.1 1017335
13:00−18всв5794100 0.3 1017396
16:00−18всв5793100 0.2 1017455
19:00−19всв4896100 0.5 1019454
22:00−20всв489699 0.2 1021379